Regional Weather Roundup
Issued by NWS Grand Forks, ND

Home | Current Version | Previous Version | Text Only | Print | Product List | Glossary On
Versions: 1 2 3 4 5 6 7 8 9 10 11 12 13 14 15 16 17 18 19 20 21 22 23 24 25 26 27 28 29 30 31 32 33 34 35 36 37 38 39 40 41 42 43 44 45 46 47 48 49 50
000
ASUS43 KFGF 061710
RWRFGF
PRAIRIE TO PINES  WEATHER ROUNDUP
NATIONAL WEATHER SERVICE EASTERN NORTH DAKOTA/GRAND FORKS ND
1200 PM CDT FRI MAY 06 2016

 **SATELLITE DATA USED TO AUGMENT SKY COVER AT AUTOMATED STATIONS**
 *****  WEATHER ACROSS EASTERN NORTH DAKOTA  *****

CITY           SKY/WX    TMP DP  RH WIND       PRES   REMARKS
GRAND FORKS    PTSUNNY   69  43  38 N28G37    29.82R
GRAND FRKS AFB SUNNY     68  43  40 N23G35    29.84R
DEVILS LAKE    SUNNY     67  43  41 N25       29.92R
FARGO          MOSUNNY   86  48  26 N10G16    29.74F
WAHPETON ARPT  MOSUNNY   81  45  28 NW7       29.76S
$$

 ***** WEATHER ACROSS CENTRAL AND WESTERN NORTH DAKOTA  *****

CITY           SKY/WX    TMP DP  RH WIND       PRES   REMARKS
BISMARCK       MOSUNNY   73  50  44 N16       29.94R
MINOT          CLOUDY    71  42  35 N24G30    29.99R
JAMESTOWN      CLOUDY    72  46  39 N32G43    29.83R
MINOT AFB      CLOUDY    65  45  49 N18       29.99R
GARRISON         N/A     69  45  41 N14G28    29.99R
WILLISTON      CLOUDY    60  44  55 N18       30.11R
DICKINSON      MOSUNNY   67  45  45 N20       30.02R
HETTINGER      SUNNY     71  46  40 N28G35    29.99R
$$

 *****  OTHER AIRPORT OBSERVATIONS IN OUR AREA  *****

CITY           SKY/WX    TMP DP  RH WIND       PRES   REMARKS
WALHALLA       FAIR      63  41  45 N26G36    29.92R
GRAFTON AIRPOR FAIR      64  41  42 N25G40    29.85R
VALLEY CITY AR FAIR      77  48  36 N17       29.83R
CANDO          FAIR      66  41  39 N21G33    29.96R
CAVALIER APRT  FAIR      61  39  44 N25G33    29.89R
GWINNER        FAIR      84  52  32 NW8       29.78S
ROLLA          FAIR      64  39  39 N26       29.98R
 ***** THE ABOVE OBSERVATIONS ARE NON NWS ARE NOT QUALITY
       CONTROLLED AND MAY MIS-REPORT RAIN FOR SNOW...
$$

  *****  WEATHER ACROSS NORTHERN MINNESOTA  *****

CITY           SKY/WX    TMP DP  RH WIND       PRES   REMARKS
FLAG ISLAND    CLOUDY    63  46  55 NW25      29.72R
WARROAD        CLOUDY    68  50  52 NW20G25   29.77R
ROSEAU         PTSUNNY   72  46  40 NW22      29.77R
HALLOCK        CLOUDY    64  36  34 N24G35    29.84R
THF RVR FALLS  CLOUDY    70  45  40 N16       29.78R
BAUDETTE       MOSUNNY   76  45  33 NW24G30   29.70R
WASKISH        PTSUNNY   73  52  46 SW12      29.71R
CROOKSTON      CLOUDY    68  45  42 N22G31    29.80R
STEPHEN NDAWN    N/A     68  41  37 N24         N/A
GREENBUSH NDAW   N/A     63  43  48 N18         N/A
$$
  *****  WEATHER ACROSS CENTRAL AND WEST MINNESOTA  *****

CITY           SKY/WX    TMP DP  RH WIND       PRES   REMARKS
FOSSTON        SUNNY     77  45  31 NW13      29.76S
BEMIDJI        PTSUNNY   83  48  29 W13G21    29.73R
PARK RAPIDS    MOSUNNY   84  49  29 W9        29.74F
ELBOW LAKE     FAIR      78  53  40 CALM      29.77S
WADENA         SUNNY     81  52  36 W12       29.76S
DETROIT LAKES  MOSUNNY   81  50  34 W8        29.78S
MOORHEAD       CLOUDY    82  48  30 N8        29.75F
FERGUS FALLS   SUNNY     79  54  41 NW5       29.73S
MORRIS MN      SUNNY     81  52  36 W8        29.76F
STAPLES        SUNNY     82  48  30 SW6       29.75F
$$
  *****  WEATHER ELSEWHERE ACROSS MINNESOTA  *****

CITY           SKY/WX    TMP DP  RH WIND       PRES   REMARKS
DULUTH         SUNNY     88  42  20 SW18G26   29.73F
INTRNTL FALLS  SUNNY     82  47  29 W14       29.65S
ELY            SUNNY     88  43  20 SW14G31   29.67F
CLOQUET        SUNNY     88  37  16 SW16G24   29.73F
WHEATON        MOSUNNY   82  55  39 NW10      29.78S
BRAINERD       SUNNY     84  49  29 SW13G21   29.75F
HIBBING        SUNNY     85  43  22 W14G23    29.70F
ALEXANDRIA     SUNNY     78  51  38 W10       29.79S
SAINT CLOUD    SUNNY     83  50  31 S14G24    29.77F
MINNEAPOLIS    MOSUNNY   82  49  31 W13G21    29.82F
$$

  *****  WEATHER ACROSS SOUTH DAKOTA  *****

CITY           SKY/WX    TMP DP  RH WIND       PRES   REMARKS
SIOUX FALLS    MOSUNNY   78  54  43 SW14G21   29.88F
BROOKINGS      SUNNY     80  53  39 W18G29    29.82S
WATERTOWN      SUNNY     80  53  39 W15       29.81S
HURON          SUNNY     82  54  37 W10       29.82S
SISSETON         N/A     82  51  34 N7        29.76S
ABERDEEN       SUNNY     85  51  31 W7        29.80S
MITCHELL       MOSUNNY   83  54  36 SW16G23   29.85F
PIERRE         SUNNY     78  54  43 S8        29.84R
MOBRIDGE       SUNNY     81  32  17 N15       29.84R
RAPID CITY     CLOUDY    75  46  35 N29G36    29.93R
$$

  *****  SOME WEATHER IN NEARBY STATES *****

CITY           SKY/WX    TMP DP  RH WIND       PRES   REMARKS
GLASGOW MT     MOSUNNY   62  43  49 N14       30.18S
GREAT FALLS MT CLOUDY    51  43  74 N10       30.28S
CHEYENNE WY    CLOUDY    73  38  27 SE12      30.01S
SCOTTSBLUFF NE MOSUNNY   70  50  49 SE10      29.95S
OMAHA NE       MOSUNNY   81  43  26 S14G22    29.99F
DES MOINES IA  MOSUNNY   81  46  29 W12       29.99F
DAVENPORT IA   SUNNY     76  43  30 W12       29.99F
CHICAGO IL     MOSUNNY   71  40  32 SW9       29.94F
EAU CLAIRE WI  SUNNY     84  46  26 W14       29.82F
LA CROSSE WI   SUNNY     79  49  34 SE6       29.86F
$$

  *****  SOME NATIONAL WEATHER *****

CITY           SKY/WX    TMP DP  RH WIND       PRES   REMARKS
LA GUARDIA NY  LGT RAIN  52  50  93 NE13      29.73S FOG
RALEIGH NC     CLOUDY    62  48  60 N13G20    29.75S
ATLANTA GA     PTSUNNY   67  40  37 N18G31    29.93F
NEW ORLEANS LA MOSUNNY   72  48  42 NW7       30.08S
OKLAHOMA CITY  PTSUNNY   75  52  44 S13       30.11F
ALBUQUERQUE NM SUNNY     78  20  11 S29       29.99F
SALT LAKE CITY PTSUNNY   72  41  32 E20       29.79F
LOS ANGELES CA PTSUNNY   61  52  72 SW8       29.89R
BOISE ID       CLOUDY    60  50  69 CALM      29.84R
SEATTLE WA     MOSUNNY   64  44  48 N12       30.10S
$$

*** WEATHER ACROSS MANITOBA...SASKATCHEWAN AND ONTARIO ***
                ***ONTARIO***

CITY           SKY/WX    TMP DP  RH WIND       PRES   REMARKS
GERALDTON      CLOUDY    70  43  37 S16G26    29.64F
THUNDER BAY    PTSUNNY   59  39  47 NE10      29.66F
SIOUX LOOKOUT  PTSUNNY   79  45  29 NW13      29.57S
TORONTO        MOSUNNY   64  41  42 S8        29.88S
BIG TROUT LK   CLOUDY    37  21  52 VRB2      29.69S
PICKLE LAKE    LGT RAIN  59  45  58 SW3       29.55F
DRYDEN         MOSUNNY   81  43  26 NW12G20   29.61R
KENORA         PTSUNNY   68  46  45 NW15G22   29.70R
$$
                *** MANITOBA***

CITY           SKY/WX    TMP DP  RH WIND       PRES   REMARKS
BRANDON        CLOUDY    61  36  39 N20G25    30.00R
DAUPHIN        SUNNY     61  39  44 NW10      30.00S
ISLAND LAKE    PTSUNNY   43  28  56 NW13G18   29.81R
PILOT MOUND      N/A     63  41  45 N24G30      N/A
THE PAS        PTSUNNY   54  32  43 NW10G20   30.00R
THOMPSON       PTSUNNY   39  34  81 NW7       29.91S
WINNIPEG       PTSUNNY   63  36  36 N26G33    29.90R
LYNN LAKE      MOSUNNY   54  30  40 NW17G28   29.91S
CHURCHILL      LGT SNOW  27  23  86 S7        29.90F WCI  19
GILLAM         CLOUDY    27  21  80 CALM      29.88F
$$
                ***SASKATCHEWAN***

CITY           SKY/WX    TMP DP  RH WIND       PRES   REMARKS
ESTEVAN        PTSUNNY   66  43  42 N22G31    30.08R
KINDERSLEY     CLOUDY    59  32  36 NW9       30.22S
LLOYDMINSTER   NOT AVBL
PRINCE ALBERT  MOSUNNY   59  36  41 N13G22    30.12R
REGINA         MOSUNNY   63  34  34 NW16G24   30.15R
YORKTON        SUNNY     63  34  34 W17G23    30.05F
N. BATTLEFORD  SUNNY     59  34  38 NW12G17   30.20R HAZE
LA RONGE       MOSUNNY   57  36  44 NW17G23   30.08S
SASKATOON      MOSUNNY   61  36  39 NW18G25   30.15R
SWIFT CURRENT  SUNNY     61  30  31 NW10G17   30.21S
$$
NOTE: THESE ARE AUTOMATED STATIONS WITH LIMITED QUALITY CONTROL
      "FAIR" INDICATES FEW OR NO CLOUDS BELOW 12,000 FEET WITH NO
      SIGNIFICANT WEATHER AND/OR OBSTRUCTIONS TO VISIBILITY.
      SKY/WX - SKY CONDITION AND SIGNIFICANT WEATHER.
      TMP - AIR TEMPERATURE.    DP   - DEWPOINT TEMPERATURE.
      RH  - RELATIVE HUMIDITY.  PRES - PRESSURE.
      HX  - HEAT INDEX.         WCI  - WIND CHILL INDEX.
$




USA.gov is the U.S. government's official web portal to all federal, state and local government web resources and services.